Weather History for Jackson, MN

Change the Weather History Date:

Monday, September 9, 2013

  Actual Average Record
Temperature  
Mean Temperature 82 °F -  
Max Temperature 95 °F 75 °F 95 °F (2013)
Min Temperature 68 °F 51 °F 35 °F (2008)
Cooling Degree Days 16    
Growing Degree Days 32 (Base 50)    
Moisture  
Dew Point 64 °F    
Average Humidity 65    
Maximum Humidity 88    
Minimum Humidity 30    
Precipitation  
Precipitation 0.00 in - - ()
Sea Level Pressure  
Sea Level Pressure 29.78 in    
Wind  
Wind Speed 11 mph (SSW)    
Max Wind Speed 23 mph    
Max Gust Speed 30 mph    
Visibility 8 miles    
Events Thunderstorm    
Averages and records for this station are not official NWS values.
T = Trace of Precipitation, MM = Missing Value Source: NWS Daily Summary

Daily Weather History Graph

Daily Weather History Graph

Search for Another Location

Airport:

Trip Planner

Search our weather history database for the weather conditions in past years. The results will help you decide how hot, cold, wet, or windy it might be!

Date:

Astronomy

Sep. 09, 2013 Rise Set
Actual Time 6:52 AM CDT 7:40 PM CDT
Civil Twilight 6:23 AM CDT 8:09 PM CDT
Nautical Twilight 5:49 AM CDT 8:44 PM CDT
Astronomical Twilight 5:13 AM CDT 9:19 PM CDT
Moon 11:25 AM CDT (9/9) 9:47 PM CDT (9/9)
Length of Visible Light 13h 45m
Length of Day
12h 47m
Waxing Crescent, 19% of the Moon is Illuminated
Sep 9
Waxing Crescent
Sep 12
First Quarter
Sep 19
Full
Sep 26
Last Quarter
Oct 4
New

Hourly Weather History & Observations

Time (CDT) Temp. Heat Index Dew Point Humidity Pressure Visibility Wind Dir Wind Speed Gust Speed Precip Events Conditions
12:13 AM 69.8 °F - 64.4 °F 83% 29.88 in 10.0 mi ESE 10.4 mph - N/A   Overcast
12:34 AM 69.8 °F - 64.4 °F 83% 29.88 in 10.0 mi ESE 9.2 mph - N/A   Overcast
12:53 AM 69.8 °F - 64.4 °F 83% 29.88 in 7.0 mi ESE 9.2 mph - N/A   Overcast
1:13 AM 69.8 °F - 64.4 °F 83% 29.87 in 7.0 mi ESE 10.4 mph - N/A   Overcast
1:34 AM 69.8 °F - 64.4 °F 83% 29.86 in 7.0 mi ESE 9.2 mph - N/A   Overcast
1:53 AM 69.8 °F - 64.4 °F 83% 29.86 in 7.0 mi ESE 9.2 mph - N/A   Overcast
2:13 AM 69.8 °F - 64.4 °F 83% 29.86 in 7.0 mi ESE 6.9 mph - N/A   Overcast
2:34 AM 68.0 °F - 64.4 °F 88% 29.84 in 5.0 mi SE 9.2 mph - N/A   Overcast
2:53 AM 68.0 °F - 64.4 °F 88% 29.83 in 5.0 mi SE 10.4 mph - N/A   Overcast
3:13 AM 68.0 °F - 64.4 °F 88% 29.82 in 5.0 mi SE 10.4 mph - N/A   Overcast
3:34 AM 68.0 °F - 64.4 °F 88% 29.82 in 4.0 mi SE 10.4 mph - N/A   Overcast
3:53 AM 68.0 °F - 64.4 °F 88% 29.81 in 4.0 mi SE 9.2 mph - N/A Thunderstorm Overcast
4:13 AM 68.0 °F - 64.4 °F 88% 29.81 in 4.0 mi SE 9.2 mph - N/A   Overcast
4:34 AM 68.0 °F - 64.4 °F 88% 29.80 in 3.0 mi SSE 9.2 mph - N/A   Overcast
4:53 AM 68.0 °F - 64.4 °F 88% 29.79 in 2.5 mi SSE 9.2 mph - N/A Thunderstorm Overcast
5:13 AM 68.0 °F - 64.4 °F 88% 29.79 in 1.2 mi SSE 10.4 mph 16.1 mph N/A   Overcast
5:34 AM 68.0 °F - 64.4 °F 88% 29.79 in 1.2 mi SSE 10.4 mph 16.1 mph N/A   Overcast
5:53 AM 69.8 °F - 64.4 °F 83% 29.79 in 1.2 mi SSE 8.1 mph - N/A   Overcast
6:13 AM 69.8 °F - 66.2 °F 88% 29.79 in 1.2 mi SSE 10.4 mph - N/A   Overcast
6:33 AM 69.8 °F - 66.2 °F 88% 29.79 in 1.0 mi SSE 8.1 mph - N/A Thunderstorm Overcast
6:53 AM 69.8 °F - 66.2 °F 88% 29.79 in 1.0 mi South 8.1 mph - N/A   Overcast
7:14 AM 69.8 °F - 66.2 °F 88% 29.79 in 0.8 mi South 8.1 mph - N/A   Overcast
7:33 AM 69.8 °F - 66.2 °F 88% 29.78 in 0.8 mi South 9.2 mph - N/A   Overcast
7:53 AM 69.8 °F - 66.2 °F 88% 29.79 in 1.0 mi South 8.1 mph - N/A   Overcast
8:13 AM 69.8 °F - 66.2 °F 88% 29.78 in 1.5 mi SSE 9.2 mph - N/A   Overcast
8:33 AM 71.6 °F - 68.0 °F 88% 29.78 in 3.0 mi SSE 9.2 mph - N/A   Overcast
8:54 AM 71.6 °F - 66.2 °F 83% 29.78 in 5.0 mi South 8.1 mph - N/A   Haze
9:13 AM 73.4 °F - 68.0 °F 83% 29.77 in 7.0 mi South 9.2 mph - N/A   Clear
9:33 AM 73.4 °F - 66.2 °F 78% 29.76 in 7.0 mi South 10.4 mph - N/A   Clear
9:54 AM 75.2 °F - 68.0 °F 78% 29.76 in 10.0 mi South 10.4 mph - N/A   Clear
10:13 AM 77.0 °F - 66.2 °F 69% 29.76 in 10.0 mi South 9.2 mph - N/A   Clear
10:33 AM 78.8 °F - 64.4 °F 61% 29.76 in 10.0 mi South 12.7 mph 17.3 mph N/A   Clear
10:54 AM 80.6 °F 82.3 °F 64.4 °F 58% 29.75 in 10.0 mi SSW 13.8 mph - N/A   Clear
11:13 AM 82.4 °F 83.9 °F 64.4 °F 54% 29.74 in 10.0 mi SSW 11.5 mph - N/A   Clear
11:33 AM 82.4 °F 83.9 °F 64.4 °F 54% 29.75 in 10.0 mi South 15.0 mph 18.4 mph N/A   Clear
11:54 AM 86.0 °F 86.6 °F 62.6 °F 45% 29.75 in 10.0 mi SW 11.5 mph 19.6 mph N/A   Clear
12:13 PM 86.0 °F 86.1 °F 60.8 °F 43% 29.75 in 10.0 mi SW 12.7 mph 20.7 mph N/A   Clear
12:33 PM 87.8 °F 87.6 °F 60.8 °F 40% 29.74 in 10.0 mi SW 15.0 mph 18.4 mph N/A   Clear
12:54 PM 87.8 °F 87.6 °F 60.8 °F 40% 29.74 in 10.0 mi SW 15.0 mph 23.0 mph N/A   Clear
1:13 PM 87.8 °F 88.5 °F 62.6 °F 43% 29.74 in 10.0 mi SSW 15.0 mph - N/A   Clear
1:33 PM 89.6 °F 89.5 °F 60.8 °F 38% 29.73 in 10.0 mi SSW 12.7 mph 19.6 mph N/A   Clear
1:54 PM 89.6 °F 89.5 °F 60.8 °F 38% 29.73 in 10.0 mi SSW 16.1 mph 19.6 mph N/A   Clear
2:13 PM 91.4 °F 92.1 °F 62.6 °F 38% 29.73 in 10.0 mi SSW 16.1 mph 20.7 mph N/A   Clear
2:33 PM 91.4 °F 91.4 °F 60.8 °F 36% 29.72 in 10.0 mi SSW 16.1 mph 25.3 mph N/A   Clear
2:54 PM 93.2 °F 93.3 °F 60.8 °F 34% 29.71 in 10.0 mi SSW 18.4 mph 23.0 mph N/A   Clear
3:13 PM 95.0 °F 95.2 °F 60.8 °F 32% 29.72 in 10.0 mi SSW 19.6 mph 23.0 mph N/A   Clear
3:33 PM 95.0 °F 94.4 °F 59.0 °F 30% 29.72 in 10.0 mi SW 18.4 mph 25.3 mph N/A   Clear
3:54 PM 95.0 °F 95.2 °F 60.8 °F 32% 29.72 in 10.0 mi WSW 19.6 mph 25.3 mph N/A   Clear
4:13 PM 93.2 °F 93.3 °F 60.8 °F 34% 29.72 in 10.0 mi SW 18.4 mph 27.6 mph N/A   Clear
4:33 PM 91.4 °F 91.4 °F 60.8 °F 36% 29.73 in 10.0 mi SW 23.0 mph 29.9 mph N/A   Clear
4:53 PM 91.4 °F 91.4 °F 60.8 °F 36% 29.74 in 10.0 mi SW 20.7 mph 25.3 mph N/A   Clear
5:13 PM 91.4 °F 92.1 °F 62.6 °F 38% 29.74 in 10.0 mi SW 19.6 mph 27.6 mph N/A   Clear
5:34 PM 91.4 °F 92.1 °F 62.6 °F 38% 29.75 in 10.0 mi SW 17.3 mph 25.3 mph N/A   Clear
5:53 PM 89.6 °F 90.1 °F 62.6 °F 40% 29.75 in 10.0 mi SW 17.3 mph 24.2 mph N/A   Clear
6:13 PM 89.6 °F 91.1 °F 64.4 °F 43% 29.75 in 10.0 mi SW 13.8 mph 20.7 mph N/A   Clear
6:34 PM 89.6 °F 91.1 °F 64.4 °F 43% 29.75 in 10.0 mi SW 12.7 mph 19.6 mph N/A   Clear
6:53 PM 87.8 °F 89.4 °F 64.4 °F 46% 29.76 in 10.0 mi SW 11.5 mph - N/A   Clear
7:13 PM 87.8 °F 89.4 °F 64.4 °F 46% 29.76 in 10.0 mi WSW 8.1 mph - N/A   Clear
7:34 PM 86.0 °F 87.3 °F 64.4 °F 48% 29.77 in 10.0 mi WSW 8.1 mph - N/A   Clear
7:53 PM 82.4 °F 84.6 °F 66.2 °F 58% 29.78 in 10.0 mi West 5.8 mph - N/A   Clear
8:13 PM 80.6 °F 83.2 °F 68.0 °F 65% 29.78 in 10.0 mi WSW 4.6 mph - N/A   Clear
8:34 PM 78.8 °F - 66.2 °F 65% 29.79 in 10.0 mi WSW 4.6 mph - N/A   Clear
8:53 PM 78.8 °F - 66.2 °F 65% 29.80 in 10.0 mi SSW 4.6 mph - N/A   Clear
9:13 PM 78.8 °F - 66.2 °F 65% 29.80 in 10.0 mi SSW 5.8 mph - N/A   Clear
9:34 PM 78.8 °F - 64.4 °F 61% 29.82 in 10.0 mi West 6.9 mph 18.4 mph N/A   Clear
9:53 PM 77.0 °F - 64.4 °F 65% 29.83 in 10.0 mi NW 4.6 mph - N/A   Clear
10:13 PM 77.0 °F - 66.2 °F 69% 29.83 in 10.0 mi NW 6.9 mph - N/A   Clear
10:34 PM 73.4 °F - 66.2 °F 78% 29.83 in 10.0 mi NW 5.8 mph - N/A   Clear
10:53 PM 73.4 °F - 66.2 °F 78% 29.83 in 10.0 mi NW 5.8 mph - N/A   Clear
11:13 PM 73.4 °F - 64.4 °F 73% 29.84 in 10.0 mi NW 5.8 mph - N/A   Clear
11:34 PM 71.6 °F - 64.4 °F 78% 29.86 in 10.0 mi Calm Calm - N/A   Clear
11:53 PM 71.6 °F - 64.4 °F 78% 29.86 in 10.0 mi NNW 4.6 mph - N/A   Clear